Date String (YYYY-MM-DD hh:mm:ss) UTC,Instrument flags,Ambient pressure (hPa),Sample flow (lpm),Bypass flow (lpm),Sample temperature (°C),Ambient temperature (°C),ASC tube jacket temperature (°C),LED temperature (°C),Box temperature (°C),Sample RH (%),Span deviation,Mass concentration (μg/m³),Mass concentration (μg/m³),Mass concentration (μg/m³)
DateTimeUTC,F1_M11,P_M11,Q1_M11,Q2_M11,T1_M11,T2_M11,T3_M11,T4_M11,T5_M11,U1_M11,ZSPAN_M11,X0_M11,X2_M11,X1_M11
2023-02-12 19:00:00,,0825.4,5.00,0.00,23.1,21.8,00.0,31.9,25.0,11.7,0000.0,0005.47,0003.53,0003.18
2023-02-12 19:01:00,,0825.5,5.03,0.00,23.1,21.7,00.0,31.9,24.9,11.7,0000.0,0005.60,0003.51,0003.19
2023-02-12 19:02:00,,0825.4,5.00,0.00,23.1,21.6,00.0,31.9,24.9,11.6,0000.0,0005.61,0003.49,0003.19
2023-02-12 19:03:00,,0825.3,5.01,0.00,23.1,21.6,00.0,31.9,24.9,11.7,0000.0,0005.66,0003.52,0003.21
2023-02-12 19:04:00,,0825.3,4.99,0.00,23.1,21.7,00.0,31.9,24.9,11.7,0000.0,0006.62,0003.55,0003.23
2023-02-12 19:05:00,,0825.3,4.99,0.00,23.1,21.7,00.0,31.9,24.9,11.9,0000.0,0006.91,0003.55,0003.24
2023-02-12 19:06:00,,0825.4,4.98,0.00,23.1,21.7,00.0,31.9,24.9,12.0,0000.0,0007.28,0003.57,0003.25
2023-02-12 19:07:00,,0825.4,4.99,0.00,23.1,21.7,00.0,31.9,24.9,11.8,0000.0,0007.54,0003.64,0003.26
2023-02-12 19:08:00,,0825.3,5.01,0.00,23.1,21.8,00.0,31.9,24.9,11.8,0000.0,0007.67,0003.65,0003.26
2023-02-12 19:09:00,,0825.3,4.96,0.00,23.1,21.8,00.0,31.9,24.9,12.0,0000.0,0007.84,0003.68,0003.27
2023-02-12 19:10:00,,0825.3,4.99,0.00,23.1,21.8,00.0,31.9,24.9,11.9,0000.0,0007.86,0003.71,0003.30
2023-02-12 19:11:00,,0825.3,4.98,0.00,23.1,21.8,00.0,31.9,25.0,11.8,0000.0,0007.89,0003.74,0003.32
2023-02-12 19:12:00,,0825.3,4.96,0.00,23.1,21.8,00.0,31.9,25.0,12.0,0000.0,0007.88,0003.76,0003.32
2023-02-12 19:13:00,,0825.4,4.99,0.00,23.1,21.8,00.0,31.9,25.0,12.2,0000.0,0008.05,0003.78,0003.32
2023-02-12 19:14:00,,0825.3,5.03,0.00,23.1,21.8,00.0,31.9,25.0,12.2,0000.0,0008.22,0003.80,0003.32
2023-02-12 19:15:00,,0825.3,4.98,0.00,23.1,21.8,00.0,31.9,25.0,12.4,0000.0,0007.82,0003.80,0003.32
2023-02-12 19:16:00,,0825.3,4.99,0.00,23.1,21.8,00.0,31.9,25.0,12.2,0000.0,0007.71,0003.82,0003.32
2023-02-12 19:17:00,,0825.3,5.02,0.00,23.1,21.9,00.0,31.9,25.0,12.0,0000.0,0007.53,0003.79,0003.32
2023-02-12 19:18:00,,0825.3,4.98,0.00,23.2,21.9,00.0,31.9,25.0,11.9,0000.0,0007.45,0003.74,0003.32
2023-02-12 19:19:00,,0825.2,4.97,0.00,23.2,21.8,00.0,31.9,25.0,11.9,0000.0,0007.48,0003.73,0003.33
2023-02-12 19:20:00,,0825.2,4.99,0.00,23.1,21.8,00.0,31.9,25.0,12.2,0000.0,0007.40,0003.71,0003.33
2023-02-12 19:21:00,,0825.2,5.02,0.00,23.1,21.8,00.0,31.9,25.0,12.2,0000.0,0007.68,0003.72,0003.31
2023-02-12 19:22:00,,0825.2,4.96,0.00,23.2,21.8,00.0,32.0,25.0,12.1,0000.0,0008.09,0003.74,0003.30
2023-02-12 19:23:00,,0825.2,4.99,0.00,23.2,21.8,00.0,32.0,25.0,12.1,0000.0,0008.49,0003.75,0003.30
2023-02-12 19:24:00,,0825.3,5.00,0.00,23.2,21.9,00.0,32.0,25.0,12.3,0000.0,0008.55,0003.77,0003.31
2023-02-12 19:25:00,,0825.3,5.01,0.00,23.2,21.9,00.0,32.0,25.0,12.2,0000.0,0008.42,0003.76,0003.31
2023-02-12 19:26:00,,0825.2,5.00,0.00,23.2,21.9,00.0,32.0,25.0,12.2,0000.0,0008.23,0003.73,0003.32
2023-02-12 19:27:00,,0825.2,5.04,0.00,23.2,21.9,00.0,32.0,25.0,12.3,0000.0,0008.53,0003.74,0003.33
2023-02-12 19:28:00,,0825.2,5.00,0.00,23.2,21.9,00.0,32.0,25.0,11.9,0000.0,0008.68,0003.76,0003.34
2023-02-12 19:29:00,,0825.2,5.00,0.00,23.2,21.9,00.0,32.0,25.0,12.4,0000.0,0008.64,0003.78,0003.35
2023-02-12 19:30:00,,0825.2,5.02,0.00,23.2,21.9,00.0,32.0,25.0,12.6,0000.0,0008.49,0003.82,0003.36
2023-02-12 19:31:00,,0825.2,5.00,0.00,23.2,21.8,00.0,32.0,25.0,12.4,0000.0,0008.48,0003.85,0003.37
2023-02-12 19:32:00,,0825.2,5.01,0.00,23.2,21.8,00.0,32.0,25.0,12.4,0000.0,0008.51,0003.86,0003.38
2023-02-12 19:33:00,,0825.2,4.95,0.00,23.2,21.9,00.0,32.0,25.0,12.5,0000.0,0008.20,0003.85,0003.39
2023-02-12 19:34:00,,0825.2,4.97,0.00,23.2,21.9,00.0,32.0,25.0,12.8,0000.0,0008.20,0003.84,0003.39
2023-02-12 19:35:00,,0825.2,4.96,0.00,23.2,21.8,00.0,32.0,25.0,12.9,0000.0,0007.95,0003.84,0003.40
2023-02-12 19:36:00,,0825.2,4.99,0.00,23.2,21.8,00.0,32.0,25.0,12.7,0000.0,0007.95,0003.85,0003.40
2023-02-12 19:37:00,,0825.2,5.01,0.00,23.2,21.8,00.0,32.0,25.0,12.7,0000.0,0008.56,0003.86,0003.41
2023-02-12 19:38:00,,0825.2,5.00,0.00,23.2,21.7,00.0,32.0,24.9,12.8,0000.0,0008.41,0003.85,0003.41
2023-02-12 19:39:00,,0825.2,5.03,0.00,23.2,21.7,00.0,32.0,25.0,12.8,0000.0,0008.25,0003.84,0003.42
2023-02-12 19:40:00,,0825.2,4.98,0.00,23.1,21.6,00.0,32.0,24.9,12.7,0000.0,0008.31,0003.87,0003.43
2023-02-12 19:41:00,,0825.2,5.01,0.00,23.1,21.6,00.0,32.0,24.9,12.6,0000.0,0008.38,0003.86,0003.43
2023-02-12 19:42:00,,0825.2,5.00,0.00,23.1,21.6,00.0,32.0,24.9,12.6,0000.0,0008.36,0003.86,0003.43
2023-02-12 19:43:00,,0825.2,5.02,0.00,23.1,21.5,00.0,32.0,24.9,12.5,0000.0,0008.26,0003.87,0003.46
2023-02-12 19:44:00,,0825.2,5.01,0.00,23.1,21.5,00.0,32.0,24.9,12.5,0000.0,0008.09,0003.88,0003.48
2023-02-12 19:45:00,,0825.3,4.98,0.00,23.1,21.5,00.0,32.0,24.9,12.4,0000.0,0007.84,0003.92,0003.51
2023-02-12 19:46:00,,0825.3,5.01,0.00,23.1,21.5,00.0,32.0,24.9,12.4,0000.0,0007.68,0003.93,0003.54
2023-02-12 19:47:00,,0825.3,5.00,0.00,23.1,21.5,00.0,32.0,24.9,12.6,0000.0,0007.86,0003.99,0003.57
2023-02-12 19:48:00,,0825.2,5.03,0.00,23.1,21.5,00.0,32.0,24.9,12.4,0000.0,0007.12,0004.00,0003.59
2023-02-12 19:49:00,,0825.2,5.02,0.00,23.1,21.6,00.0,32.0,24.9,12.4,0000.0,0006.92,0004.03,0003.64
2023-02-12 19:50:00,,0825.2,4.99,0.00,23.1,21.6,00.0,32.0,24.9,12.7,0000.0,0007.55,0004.07,0003.69
2023-02-12 19:51:00,,0825.2,5.02,0.00,23.1,21.6,00.0,31.9,24.9,12.4,0000.0,0007.74,0004.10,0003.74
2023-02-12 19:52:00,,0825.2,5.02,0.00,23.1,21.7,00.0,32.0,24.9,12.5,0000.0,0007.73,0004.15,0003.80
2023-02-12 19:53:00,,0825.1,5.01,0.00,23.1,21.7,00.0,32.0,25.0,12.4,0000.0,0007.77,0004.20,0003.85
2023-02-12 19:54:00,,0825.2,5.01,0.00,23.1,21.6,00.0,32.0,24.9,12.4,0000.0,0007.88,0004.21,0003.87
2023-02-12 19:55:00,,0825.1,5.01,0.00,23.1,21.5,00.0,31.9,24.9,12.3,0000.0,0007.90,0004.21,0003.86
2023-02-12 19:56:00,,0825.1,4.99,0.00,23.1,21.5,00.0,31.9,24.9,12.4,0000.0,0007.79,0004.20,0003.87
2023-02-12 19:57:00,,0825.2,4.99,0.00,23.1,21.5,00.0,31.9,24.9,12.4,0000.0,0007.72,0004.17,0003.86
2023-02-12 19:58:00,,0825.1,5.01,0.00,23.1,21.5,00.0,31.9,24.9,12.4,0000.0,0007.60,0004.13,0003.85
2023-02-12 19:59:00,,0825.1,5.03,0.00,23.1,21.5,00.0,31.9,24.9,12.6,0000.0,0007.68,0004.13,0003.85
